Pipestone, MN

1:15 AM CDT on May 21, 2018 (GMT -0500)
Pipestone Municipal

Weather History for KPQN - September, 2013

Change the Weather History Date:

Wednesday, September 18, 2013

  Actual Average Record
Temperature  
Mean Temperature 74 °F -  
Max Temperature 86 °F 67 °F 89 °F (1998)
Min Temperature 62 °F 47 °F 33 °F (2012)
Cooling Degree Days 9    
Growing Degree Days 24 (Base 50)    
Moisture  
Dew Point 67 °F    
Average Humidity 80    
Maximum Humidity 100    
Minimum Humidity 55    
Precipitation  
Precipitation 0.00 in - - ()
Sea Level Pressure  
Sea Level Pressure 29.73 in    
Wind  
Wind Speed 11 mph (South)    
Max Wind Speed 18 mph    
Max Gust Speed 23 mph    
Visibility 7 miles    
Events Fog    
Averages and records for this station are not official NWS values.
T = Trace of Precipitation, MM = Missing Value Source: NWS Daily Summary

Daily Weather History Graph

Daily Weather History Graph

Search for Another Location

Airport or City:

Astronomy

Sep. 18, 2013 Rise Set
Actual Time 7:08 AM CDT 7:29 PM CDT
Civil Twilight 6:39 AM CDT 7:58 PM CDT
Nautical Twilight 6:05 AM CDT 8:32 PM CDT
Astronomical Twilight 5:30 AM CDT 9:07 PM CDT
Moon 6:52 PM CDT (9/18) 6:11 AM CDT (9/18)
Length of Visible Light 13h 19m
Length of Day
12h 21m
Waxing Gibbous, 99% of the Moon is Illuminated
Sep 18
Waxing Gibbous
Sep 19
Full
Sep 26
Last Quarter
Oct 4
New
Oct 11
First Quarter

Hourly Weather History & Observations

Time (CDT) Temp. Heat Index Dew Point Humidity Pressure Visibility Wind Dir Wind Speed Gust Speed Precip Events Conditions
12:13 AM 62.6 °F - 62.6 °F 100% 29.85 in 0.8 mi South 9.2 mph - N/A   Overcast
12:33 AM 62.6 °F - 62.6 °F 100% 29.85 in 0.5 mi South 10.4 mph - N/A Fog Fog
12:53 AM 62.6 °F - 62.6 °F 100% 29.84 in 0.5 mi South 11.5 mph 16.1 mph N/A Fog Fog
1:14 AM 64.4 °F - 62.6 °F 94% 29.84 in 1.0 mi South 10.4 mph - N/A   Overcast
1:33 AM 64.4 °F - 62.6 °F 94% 29.83 in 1.5 mi South 11.5 mph - N/A   Overcast
1:53 AM 64.4 °F - 62.6 °F 94% 29.82 in 1.8 mi South 11.5 mph 17.3 mph N/A   Overcast
2:14 AM 64.4 °F - 64.4 °F 100% 29.82 in 1.8 mi South 10.4 mph - N/A   Overcast
2:33 AM 66.2 °F - 64.4 °F 94% 29.81 in 2.0 mi South 13.8 mph 19.6 mph N/A   Overcast
2:53 AM 66.2 °F - 64.4 °F 94% 29.81 in 2.0 mi SSW 12.7 mph 20.7 mph N/A   Overcast
3:14 AM 66.2 °F - 66.2 °F 100% 29.80 in 2.5 mi SSW 15.0 mph 19.6 mph N/A   Overcast
3:33 AM 66.2 °F - 66.2 °F 100% 29.79 in 3.0 mi South 12.7 mph 21.9 mph N/A   Overcast
3:53 AM 66.2 °F - 66.2 °F 100% 29.78 in 3.0 mi South 12.7 mph - N/A   Overcast
4:13 AM 68.0 °F - 66.2 °F 94% 29.78 in 3.0 mi SSW 12.7 mph - N/A   Overcast
4:33 AM 68.0 °F - 66.2 °F 94% 29.78 in 4.0 mi SSW 11.5 mph - N/A   Overcast
4:53 AM 68.0 °F - 66.2 °F 94% 29.78 in 4.0 mi SSW 9.2 mph - N/A   Overcast
5:13 AM 68.0 °F - 66.2 °F 94% 29.77 in 4.0 mi SSW 11.5 mph - N/A   Overcast
5:33 AM 69.8 °F - 66.2 °F 88% 29.76 in 4.0 mi SSW 9.2 mph 16.1 mph N/A   Overcast
5:53 AM 68.0 °F - 66.2 °F 94% 29.76 in 4.0 mi SSW 9.2 mph - N/A   Overcast
6:13 AM 69.8 °F - 66.2 °F 88% 29.76 in 5.0 mi SSW 10.4 mph - N/A   Overcast
6:34 AM 69.8 °F - 66.2 °F 88% 29.76 in 4.0 mi SSW 9.2 mph 16.1 mph N/A   Overcast
6:53 AM 69.8 °F - 66.2 °F 88% 29.76 in 4.0 mi SSW 9.2 mph - N/A   Overcast
7:13 AM 69.8 °F - 66.2 °F 88% 29.76 in 4.0 mi South 10.4 mph 16.1 mph N/A   Overcast
7:34 AM 69.8 °F - 66.2 °F 88% 29.76 in 3.0 mi South 9.2 mph 17.3 mph N/A   Overcast
7:53 AM 69.8 °F - 66.2 °F 88% 29.77 in 4.0 mi South 11.5 mph 17.3 mph N/A   Overcast
8:13 AM 69.8 °F - 66.2 °F 88% 29.77 in 4.0 mi South 12.7 mph - N/A   Overcast
8:34 AM 69.8 °F - 66.2 °F 88% 29.77 in 4.0 mi South 11.5 mph 16.1 mph N/A   Overcast
8:53 AM 69.8 °F - 66.2 °F 88% 29.77 in 4.0 mi South 11.5 mph - N/A   Overcast
9:13 AM 69.8 °F - 66.2 °F 88% 29.77 in 4.0 mi SSW 11.5 mph 16.1 mph N/A   Overcast
9:33 AM 69.8 °F - 66.2 °F 88% 29.78 in 5.0 mi SSW 9.2 mph - N/A   Overcast
9:53 AM 69.8 °F - 66.2 °F 88% 29.77 in 5.0 mi South 10.4 mph - N/A   Overcast
10:13 AM 69.8 °F - 66.2 °F 88% 29.76 in 5.0 mi South 11.5 mph 16.1 mph N/A   Overcast
10:33 AM 71.6 °F - 66.2 °F 83% 29.76 in 7.0 mi South 10.4 mph - N/A   Overcast
10:53 AM 71.6 °F - 66.2 °F 83% 29.75 in 7.0 mi South 10.4 mph - N/A   Overcast
11:13 AM 71.6 °F - 66.2 °F 83% 29.74 in 7.0 mi SSW 12.7 mph 16.1 mph N/A   Overcast
11:33 AM 73.4 °F - 66.2 °F 78% 29.74 in 10.0 mi South 11.5 mph 18.4 mph N/A   Overcast
11:53 AM 75.2 °F - 66.2 °F 73% 29.73 in 10.0 mi South 13.8 mph 19.6 mph N/A   Overcast
12:13 PM 75.2 °F - 66.2 °F 73% 29.73 in 10.0 mi South 11.5 mph - N/A   Mostly Cloudy
12:33 PM 77.0 °F - 68.0 °F 74% 29.73 in 10.0 mi South 15.0 mph - N/A   Scattered Clouds
12:53 PM 78.8 °F - 68.0 °F 69% 29.72 in 10.0 mi South 11.5 mph 18.4 mph N/A   Clear
1:13 PM 78.8 °F - 68.0 °F 69% 29.72 in 10.0 mi South 10.4 mph 17.3 mph N/A   Clear
1:33 PM 80.6 °F 83.2 °F 68.0 °F 65% 29.71 in 10.0 mi South 11.5 mph - N/A   Clear
1:53 PM 80.6 °F 83.2 °F 68.0 °F 65% 29.70 in 10.0 mi South 13.8 mph - N/A   Clear
2:13 PM 82.4 °F 85.4 °F 68.0 °F 62% 29.69 in 10.0 mi South 13.8 mph 21.9 mph N/A   Clear
2:34 PM 84.2 °F 87.3 °F 68.0 °F 58% 29.69 in 10.0 mi South 17.3 mph 20.7 mph N/A   Clear
2:53 PM 84.2 °F 87.3 °F 68.0 °F 58% 29.69 in 10.0 mi South 13.8 mph 19.6 mph N/A   Clear
3:13 PM 84.2 °F 87.3 °F 68.0 °F 58% 29.68 in 10.0 mi South 16.1 mph 20.7 mph N/A   Clear
3:34 PM 84.2 °F 87.3 °F 68.0 °F 58% 29.68 in 10.0 mi South 13.8 mph - N/A   Clear
3:53 PM 84.2 °F 86.6 °F 66.2 °F 55% 29.68 in 10.0 mi SSW 16.1 mph 20.7 mph N/A   Clear
4:13 PM 86.0 °F 89.4 °F 68.0 °F 55% 29.68 in 10.0 mi SSW 16.1 mph 23.0 mph N/A   Clear
4:34 PM 84.2 °F 86.6 °F 66.2 °F 55% 29.68 in 10.0 mi SSW 18.4 mph - N/A   Clear
4:53 PM 84.2 °F 86.6 °F 66.2 °F 55% 29.67 in 10.0 mi SSW 17.3 mph 21.9 mph N/A   Clear
5:13 PM 84.2 °F 87.3 °F 68.0 °F 58% 29.68 in 10.0 mi SSW 15.0 mph 20.7 mph N/A   Clear
5:33 PM 84.2 °F 87.3 °F 68.0 °F 58% 29.68 in 10.0 mi SSW 12.7 mph 23.0 mph N/A   Clear
5:53 PM 84.2 °F 87.3 °F 68.0 °F 58% 29.68 in 10.0 mi South 12.7 mph 19.6 mph N/A   Clear
6:13 PM 82.4 °F 85.4 °F 68.0 °F 62% 29.68 in 10.0 mi South 11.5 mph - N/A   Clear
6:33 PM 82.4 °F 86.3 °F 69.8 °F 66% 29.68 in 10.0 mi South 11.5 mph - N/A   Clear
6:53 PM 80.6 °F 83.9 °F 69.8 °F 70% 29.67 in 10.0 mi South 11.5 mph - N/A   Clear
7:13 PM 80.6 °F 83.9 °F 69.8 °F 70% 29.67 in 10.0 mi South 10.4 mph - N/A   Clear
7:33 PM 78.8 °F - 69.8 °F 74% 29.67 in 10.0 mi South 8.1 mph - N/A   Clear
7:53 PM 77.0 °F - 69.8 °F 78% 29.66 in 10.0 mi South 8.1 mph - N/A   Clear
8:13 PM 77.0 °F - 69.8 °F 78% 29.67 in 10.0 mi South 8.1 mph - N/A   Clear
8:33 PM 75.2 °F - 69.8 °F 83% 29.67 in 10.0 mi South 8.1 mph - N/A   Clear
8:53 PM 75.2 °F - 68.0 °F 78% 29.68 in 10.0 mi South 8.1 mph - N/A   Clear
9:13 PM 75.2 °F - 68.0 °F 78% 29.67 in 10.0 mi South 9.2 mph - N/A   Clear
9:33 PM 75.2 °F - 68.0 °F 78% 29.66 in 10.0 mi South 9.2 mph - N/A   Clear
9:53 PM 73.4 °F - 68.0 °F 83% 29.66 in 10.0 mi South 9.2 mph - N/A   Clear
10:13 PM 73.4 °F - 68.0 °F 83% 29.66 in 10.0 mi South 11.5 mph - N/A   Clear
10:33 PM 73.4 °F - 68.0 °F 83% 29.67 in 10.0 mi South 10.4 mph - N/A   Clear
10:54 PM 73.4 °F - 66.2 °F 78% 29.67 in 10.0 mi South 9.2 mph - N/A   Clear
11:13 PM 73.4 °F - 66.2 °F 78% 29.67 in 10.0 mi South 9.2 mph - N/A   Clear
11:33 PM 73.4 °F - 66.2 °F 78% 29.67 in 10.0 mi South 6.9 mph - N/A   Clear
11:54 PM 73.4 °F - 66.2 °F 78% 29.67 in 10.0 mi South 8.1 mph - N/A   Clear